Location: Newark
(3.1475°N, 101.6933°E)
Time: 19:15:20
(UTC+00:00)

Envisat - Pass Details

Date: 27 September 2019
Orbit: 764 x 766 km, 98.1° (Epoch: 22 October)

Event Time Altitude Azimuth Distance (km) Brightness Sun altitude
Rises 11:30:26 0° 160° (SSE) 3,228 6.0 -6.6°
Reaches altitude 10° 11:32:46 10° 156° (SSE) 2,301 5.3 -7.2°
Maximum altitude 11:37:45 58° 78° (ENE) 887 3.0 -8.4°
Drops below altitude 10° 11:42:43 10° 359° (N) 2,293 5.5 -9.7°
Sets 11:45:02 0° 356° (N) 3,217 6.3 -10.2°
